This is the latest recevied weather packets stored in our database for station/object AF9W-5. If no packets are shown the sender has not sent any weather packets the latest 10 day(s).
| Time | Temp. | Humidity | Pressure | Rain* | Wind** | Luminosity | Snow |
|---|---|---|---|---|---|---|---|
| 1777212769 | 16.67° C | 34% | 1010 hPa | 0 mm | - | 86 W/m² | - |
| 1777212465 | 16.67° C | 33% | 1010.1 hPa | 0 mm | - | 87 W/m² | - |
| 1777212165 | 16.67° C | 32% | 1010 hPa | 0 mm | - | 83 W/m² | - |
| 1777211861 | 16.67° C | 31% | 1009.9 hPa | 0 mm | - | 78 W/m² | - |
| 1777211559 | 16.67° C | 31% | 1009.7 hPa | 0 mm | - | 93 W/m² | - |
| 1777211256 | 16.67° C | 30% | 1009.6 hPa | 0 mm | - | 49 W/m² | - |
| 1777210952 | 16.67° C | 29% | 1009.3 hPa | 0 mm | - | 46 W/m² | - |
| 1777210652 | 17.22° C | 29% | 1009.2 hPa | 0 mm | - | 45 W/m² | - |
| 1777210348 | 17.22° C | 28% | 1009.1 hPa | 0 mm | - | 51 W/m² | - |
| 1777210045 | 17.22° C | 27% | 1009.1 hPa | 0 mm | - | 45 W/m² | - |
| 1777209740 | 16.67° C | 27% | 1009.2 hPa | 0 mm | - | 38 W/m² | - |
| 1777209436 | 16.11° C | 28% | 1008.9 hPa | 0 mm | - | 38 W/m² | - |
| 1777209133 | 15.56° C | 29% | 1009.1 hPa | 0 mm | - | 28 W/m² | - |
| 1777208828 | 15.56° C | 29% | 1009.3 hPa | 0 mm | - | 21 W/m² | - |
| 1777208526 | 15.56° C | 28% | 1009 hPa | 0 mm | - | 15 W/m² | - |
| 1777208222 | 15.56° C | 28% | 1008.9 hPa | 0 mm | - | 10 W/m² | - |
| 1777207917 | 16.11° C | 27% | 1008.8 hPa | 0 mm | - | 7 W/m² | - |
| 1777207612 | 16.67° C | 26% | 1008.8 hPa | 0 mm | - | 5 W/m² | - |
| 1777207308 | 16.67° C | 26% | 1008.8 hPa | 0 mm | - | 2 W/m² | - |
| 1777207001 | 16.67° C | 25% | 1008.6 hPa | 0 mm | - | 1 W/m² | - |
| 1777206698 | 16.67° C | 25% | 1008.5 hPa | 0 mm | - | 1 W/m² | - |
| 1777206392 | 17.22° C | 25% | 1008 hPa | 0 mm | - | 0 W/m² | - |
| 1777206088 | 17.78° C | 24% | 1008.1 hPa | 0 mm | - | 0 W/m² | - |
| 1777205785 | 17.78° C | 24% | 1007.8 hPa | 0 mm | - | 0 W/m² | - |
| 1777205482 | 17.22° C | 24% | 1007.8 hPa | 0 mm | - | 0 W/m² | - |
* Rain latest hour (hover to see other rain measurements)
** Current wind speed in m/s (hover to see current wind gust speed)